����������;��������(kVARh)
2016-09-05 00:00;6,3
2016-09-05 00:15;11,8
2016-09-05 00:30;7,9
2016-09-05 00:45;9,3
2016-09-05 01:00;9,3
2016-09-05 01:15;1,7
2016-09-05 01:30;0,1
2016-09-05 01:45;4,9
2016-09-05 02:00;2,3
2016-09-05 02:15;0,95
2016-09-05 02:30;3,15
2016-09-05 02:45;6,85
2016-09-05 03:00;2,8
2016-09-05 03:15;2,15
2016-09-05 03:30;4,75
2016-09-05 03:45;4,4
2016-09-05 04:00;2,45
2016-09-05 04:15;4,8
2016-09-05 04:30;5,7
2016-09-05 04:45;2
2016-09-05 05:00;2,4
2016-09-05 05:15;8,05
2016-09-05 05:30;2,9
2016-09-05 05:45;2,25
2016-09-05 06:00;4,7
2016-09-05 06:15;9,05
2016-09-05 06:30;2
2016-09-05 06:45;2,1
2016-09-05 07:00;4,7
2016-09-05 07:15;11,45
2016-09-05 07:30;4,55
2016-09-05 07:45;16,85
2016-09-05 08:00;19,25
2016-09-05 08:15;24,3
2016-09-05 08:30;11,25
2016-09-05 08:45;19,95
2016-09-05 09:00;15,85
2016-09-05 09:15;28,65
2016-09-05 09:30;37,85
2016-09-05 09:45;42,95
2016-09-05 10:00;45
2016-09-05 10:15;39,4
2016-09-05 10:30;41,4
2016-09-05 10:45;48,8
2016-09-05 11:00;50
2016-09-05 11:15;47,35
2016-09-05 11:30;53,2
2016-09-05 11:45;48,25
2016-09-05 12:00;41,75
2016-09-05 12:15;44,25
2016-09-05 12:30;45,85
2016-09-05 12:45;44,35
2016-09-05 13:00;45,9
2016-09-05 13:15;47,6
2016-09-05 13:30;42,45
2016-09-05 13:45;33,65
2016-09-05 14:00;40,3
2016-09-05 14:15;37,75
2016-09-05 14:30;39,65
2016-09-05 14:45;44,5
2016-09-05 15:00;41,95
2016-09-05 15:15;50,25
2016-09-05 15:30;51,45
2016-09-05 15:45;44,9
2016-09-05 16:00;47,85
2016-09-05 16:15;41,6
2016-09-05 16:30;42,55
2016-09-05 16:45;50,95
2016-09-05 17:00;45,6
2016-09-05 17:15;44
2016-09-05 17:30;46,6
2016-09-05 17:45;36,7
2016-09-05 18:00;38
2016-09-05 18:15;33,1
2016-09-05 18:30;28,25
2016-09-05 18:45;25,7
2016-09-05 19:00;25,9
2016-09-05 19:15;12,2
2016-09-05 19:30;8,8
2016-09-05 19:45;8,7
2016-09-05 20:00;9,25
2016-09-05 20:15;2,05
2016-09-05 20:30;3,35
2016-09-05 20:45;6,2
2016-09-05 21:00;5
2016-09-05 21:15;6,8
2016-09-05 21:30;8,05
2016-09-05 21:45;6,6
2016-09-05 22:00;5,35
2016-09-05 22:15;9,1
2016-09-05 22:30;9,35
2016-09-05 22:45;8,6
2016-09-05 23:00;11,45
2016-09-05 23:15;12,2
2016-09-05 23:30;10,65
2016-09-05 23:45;7,3
2016-09-06 00:00;7,05
2016-09-06 00:15;6,3
2016-09-06 00:30;6,25
2016-09-06 00:45;8,85
2016-09-06 01:00;8,6
2016-09-06 01:15;4,65
2016-09-06 01:30;4,9
2016-09-06 01:45;7,3
2016-09-06 02:00;8,75
2016-09-06 02:15;7
2016-09-06 02:30;1,5
2016-09-06 02:45;0,35
2016-09-06 03:00;0,9
2016-09-06 03:15;1,6
2016-09-06 03:30;1,3
2016-09-06 03:45;1,55
2016-09-06 04:00;0,3
2016-09-06 04:15;0,25
2016-09-06 04:30;0,25
2016-09-06 04:45;0,45
2016-09-06 05:00;0,8
2016-09-06 05:15;1,1
2016-09-06 05:30;1,25
2016-09-06 05:45;0,75
2016-09-06 06:00;6,15
2016-09-06 06:15;7,8
2016-09-06 06:30;7,25
2016-09-06 06:45;3,2
2016-09-06 07:00;1,9
2016-09-06 07:15;10,15
2016-09-06 07:30;14,05
2016-09-06 07:45;21,5
2016-09-06 08:00;17,45
2016-09-06 08:15;14,1
2016-09-06 08:30;30,05
2016-09-06 08:45;16,7
2016-09-06 09:00;15,05
2016-09-06 09:15;29,05
2016-09-06 09:30;29,7
2016-09-06 09:45;25,65
2016-09-06 10:00;28,2
2016-09-06 10:15;39,3
2016-09-06 10:30;28,95
2016-09-06 10:45;31,45
2016-09-06 11:00;39,6
2016-09-06 11:15;36,9
2016-09-06 11:30;37,4
2016-09-06 11:45;33,15
2016-09-06 12:00;31,95
2016-09-06 12:15;36,35
2016-09-06 12:30;37,75
2016-09-06 12:45;32,9
2016-09-06 13:00;38,4
2016-09-06 13:15;45,4
2016-09-06 13:30;45,3
2016-09-06 13:45;53,7
2016-09-06 14:00;46,6
2016-09-06 14:15;49,85
2016-09-06 14:30;58,75
2016-09-06 14:45;56,65
2016-09-06 15:00;49,4
2016-09-06 15:15;47,3
2016-09-06 15:30;53,15
2016-09-06 15:45;46,8
2016-09-06 16:00;36
2016-09-06 16:15;40,85
2016-09-06 16:30;39,75
2016-09-06 16:45;36,45
2016-09-06 17:00;28,85
2016-09-06 17:15;28,8
2016-09-06 17:30;29,35
2016-09-06 17:45;21,75
2016-09-06 18:00;22
2016-09-06 18:15;16,4
2016-09-06 18:30;16,05
2016-09-06 18:45;16,35
2016-09-06 19:00;16,3
2016-09-06 19:15;13,8
2016-09-06 19:30;9,35
2016-09-06 19:45;9,65
2016-09-06 20:00;7,9
2016-09-06 20:15;6,8
2016-09-06 20:30;12,95
2016-09-06 20:45;12,65
2016-09-06 21:00;12,5
2016-09-06 21:15;16,5
2016-09-06 21:30;16,75
2016-09-06 21:45;17,6
2016-09-06 22:00;17,8
2016-09-06 22:15;18,15
2016-09-06 22:30;15,35
2016-09-06 22:45;13,65
2016-09-06 23:00;14,9
2016-09-06 23:15;13,8
2016-09-06 23:30;13,15
2016-09-06 23:45;10,55
2016-09-07 00:00;7,7
2016-09-07 00:15;3,8
2016-09-07 00:30;6,15
2016-09-07 00:45;7,4
2016-09-07 01:00;8,85
2016-09-07 01:15;4,65
2016-09-07 01:30;2,3
2016-09-07 01:45;3,6
2016-09-07 02:00;0,45
2016-09-07 02:15;1,15
2016-09-07 02:30;1,3
2016-09-07 02:45;2,2
2016-09-07 03:00;1,45
2016-09-07 03:15;2,65
2016-09-07 03:30;2,1
2016-09-07 03:45;1,55
2016-09-07 04:00;2,45
2016-09-07 04:15;2,75
2016-09-07 04:30;1,8
2016-09-07 04:45;0,55
2016-09-07 05:00;0,5
2016-09-07 05:15;0,8
2016-09-07 05:30;0,05
2016-09-07 05:45;0,75
2016-09-07 06:00;6,95
2016-09-07 06:15;6,1
2016-09-07 06:30;6,45
2016-09-07 06:45;4
2016-09-07 07:00;7,85
2016-09-07 07:15;15,95
2016-09-07 07:30;17,15
2016-09-07 07:45;21,9
2016-09-07 08:00;10,8
2016-09-07 08:15;25,5
2016-09-07 08:30;20,05
2016-09-07 08:45;21,75
2016-09-07 09:00;25,05
2016-09-07 09:15;32,9
2016-09-07 09:30;33,65
2016-09-07 09:45;33,4
2016-09-07 10:00;37,8
2016-09-07 10:15;43,1
2016-09-07 10:30;32,45
2016-09-07 10:45;41,3
2016-09-07 11:00;46,25
2016-09-07 11:15;40,5
2016-09-07 11:30;54,9
2016-09-07 11:45;51,45
2016-09-07 12:00;43,85
2016-09-07 12:15;48,65
2016-09-07 12:30;53,4
2016-09-07 12:45;45,65
2016-09-07 13:00;51,1
2016-09-07 13:15;50,75
2016-09-07 13:30;56,8
2016-09-07 13:45;62,35
2016-09-07 14:00;49,7
2016-09-07 14:15;50
2016-09-07 14:30;49,55
2016-09-07 14:45;42,55
2016-09-07 15:00;43,5
2016-09-07 15:15;45,4
2016-09-07 15:30;38,4
2016-09-07 15:45;41,2
2016-09-07 16:00;41
2016-09-07 16:15;36,5
2016-09-07 16:30;40,15
2016-09-07 16:45;41,9
2016-09-07 17:00;31,3
2016-09-07 17:15;33,35
2016-09-07 17:30;33,4
2016-09-07 17:45;27,3
2016-09-07 18:00;26,55
2016-09-07 18:15;24,3
2016-09-07 18:30;32,6
2016-09-07 18:45;30,1
2016-09-07 19:00;20,95
2016-09-07 19:15;28,65
2016-09-07 19:30;13,85
2016-09-07 19:45;13,75
2016-09-07 20:00;10,3
2016-09-07 20:15;12,55
2016-09-07 20:30;16,85
2016-09-07 20:45;18,4
2016-09-07 21:00;14,3
2016-09-07 21:15;9,95
2016-09-07 21:30;7,3
2016-09-07 21:45;6,85
2016-09-07 22:00;3,55
2016-09-07 22:15;6,2
2016-09-07 22:30;6,9
2016-09-07 22:45;7,8
2016-09-07 23:00;5
2016-09-07 23:15;2,8
2016-09-07 23:30;2,9
2016-09-07 23:45;3,5
2016-09-08 00:00;4
2016-09-08 00:15;2,95
2016-09-08 00:30;1
2016-09-08 00:45;1,45
2016-09-08 01:00;2,6
2016-09-08 01:15;1,6
2016-09-08 01:30;2,6
2016-09-08 01:45;2,2
2016-09-08 02:00;3,85
2016-09-08 02:15;3,25
2016-09-08 02:30;3,85
2016-09-08 02:45;5,15
2016-09-08 03:00;4,4
2016-09-08 03:15;5,2
2016-09-08 03:30;5,8
2016-09-08 03:45;5,05
2016-09-08 04:00;4,4
2016-09-08 04:15;4,75
2016-09-08 04:30;4,8
2016-09-08 04:45;5
2016-09-08 05:00;5,6
2016-09-08 05:15;5,15
2016-09-08 05:30;4,6
2016-09-08 05:45;6,55
2016-09-08 06:00;12,4
2016-09-08 06:15;13,45
2016-09-08 06:30;12,35
2016-09-08 06:45;9,2
2016-09-08 07:00;5,5
2016-09-08 07:15;15,4
2016-09-08 07:30;23,5
2016-09-08 07:45;32,4
2016-09-08 08:00;34,3
2016-09-08 08:15;33,6
2016-09-08 08:30;33,1
2016-09-08 08:45;34,55
2016-09-08 09:00;33,8
2016-09-08 09:15;35,55
2016-09-08 09:30;32,1
2016-09-08 09:45;42,75
2016-09-08 10:00;45,6
2016-09-08 10:15;42,3
2016-09-08 10:30;48,8
2016-09-08 10:45;55,65
2016-09-08 11:00;48,55
2016-09-08 11:15;43,95
2016-09-08 11:30;53,25
2016-09-08 11:45;58,3
2016-09-08 12:00;51,7
2016-09-08 12:15;59,85
2016-09-08 12:30;49,3
2016-09-08 12:45;54,95
2016-09-08 13:00;56,95
2016-09-08 13:15;53
2016-09-08 13:30;68,8
2016-09-08 13:45;59,1
2016-09-08 14:00;53,75
2016-09-08 14:15;59,05
2016-09-08 14:30;60,35
2016-09-08 14:45;57,05
2016-09-08 15:00;47,7
2016-09-08 15:15;59,1
2016-09-08 15:30;52,4
2016-09-08 15:45;44,25
2016-09-08 16:00;55,95
2016-09-08 16:15;45,95
2016-09-08 16:30;45,95
2016-09-08 16:45;53,95
2016-09-08 17:00;41,05
2016-09-08 17:15;38,1
2016-09-08 17:30;50,2
2016-09-08 17:45;32,6
2016-09-08 18:00;26
2016-09-08 18:15;33,9
2016-09-08 18:30;29,1
2016-09-08 18:45;25,25
2016-09-08 19:00;29,7
2016-09-08 19:15;24,1
2016-09-08 19:30;18,65
2016-09-08 19:45;24,1
2016-09-08 20:00;15,2
2016-09-08 20:15;9,7
2016-09-08 20:30;8,4
2016-09-08 20:45;11,7
2016-09-08 21:00;12,65
2016-09-08 21:15;10,85
2016-09-08 21:30;18,7
2016-09-08 21:45;18,7
2016-09-08 22:00;11,35
2016-09-08 22:15;14,4
2016-09-08 22:30;17,65
2016-09-08 22:45;13,6
2016-09-08 23:00;14,55
2016-09-08 23:15;19,9
2016-09-08 23:30;8,15
2016-09-08 23:45;7,7
2016-09-09 00:00;12
2016-09-09 00:15;6,5
2016-09-09 00:30;6,4
2016-09-09 00:45;2,15
2016-09-09 01:00;2,1
2016-09-09 01:15;1,85
2016-09-09 01:30;0
2016-09-09 01:45;6,4
2016-09-09 02:00;3,2
2016-09-09 02:15;0
2016-09-09 02:30;6,9
2016-09-09 02:45;2,15
2016-09-09 03:00;0,45
2016-09-09 03:15;2,3
2016-09-09 03:30;0
2016-09-09 03:45;0
2016-09-09 04:00;0
2016-09-09 04:15;0
2016-09-09 04:30;0,1
2016-09-09 04:45;0
2016-09-09 05:00;0,6
2016-09-09 05:15;0,6
2016-09-09 05:30;1,3
2016-09-09 05:45;1,5
2016-09-09 06:00;4,2
2016-09-09 06:15;8,2
2016-09-09 06:30;6,95
2016-09-09 06:45;6,25
2016-09-09 07:00;3
2016-09-09 07:15;4,45
2016-09-09 07:30;17,2
2016-09-09 07:45;24,35
2016-09-09 08:00;21,2
2016-09-09 08:15;23,85
2016-09-09 08:30;31,65
2016-09-09 08:45;28,6
2016-09-09 09:00;30,65
2016-09-09 09:15;33,7
2016-09-09 09:30;33,15
2016-09-09 09:45;33,6
2016-09-09 10:00;41,9
2016-09-09 10:15;41,15
2016-09-09 10:30;46,2
2016-09-09 10:45;50,05
2016-09-09 11:00;56,1
2016-09-09 11:15;52,35
2016-09-09 11:30;50,55
2016-09-09 11:45;50,1
2016-09-09 12:00;51,4
2016-09-09 12:15;55,5
2016-09-09 12:30;55,65
2016-09-09 12:45;46,1
2016-09-09 13:00;51,45
2016-09-09 13:15;47,1
2016-09-09 13:30;49,7
2016-09-09 13:45;50,1
2016-09-09 14:00;46,15
2016-09-09 14:15;51,6
2016-09-09 14:30;51,7
2016-09-09 14:45;48,5
2016-09-09 15:00;44,9
2016-09-09 15:15;38,05
2016-09-09 15:30;46,15
2016-09-09 15:45;39,15
2016-09-09 16:00;36,65
2016-09-09 16:15;38,15
2016-09-09 16:30;34,5
2016-09-09 16:45;35,3
2016-09-09 17:00;36,25
2016-09-09 17:15;37,45
2016-09-09 17:30;28,2
2016-09-09 17:45;29,85
2016-09-09 18:00;32,7
2016-09-09 18:15;27,25
2016-09-09 18:30;24,35
2016-09-09 18:45;25
2016-09-09 19:00;22,5
2016-09-09 19:15;18,7
2016-09-09 19:30;15,9
2016-09-09 19:45;13,25
2016-09-09 20:00;9,25
2016-09-09 20:15;3,2
2016-09-09 20:30;3,85
2016-09-09 20:45;5
2016-09-09 21:00;4,25
2016-09-09 21:15;6,35
2016-09-09 21:30;8,15
2016-09-09 21:45;8,55
2016-09-09 22:00;8,75
2016-09-09 22:15;10,45
2016-09-09 22:30;10,8
2016-09-09 22:45;9,55
2016-09-09 23:00;7,25
2016-09-09 23:15;5,75
2016-09-09 23:30;5,05
2016-09-09 23:45;5,35
2016-09-10 00:00;2,05
2016-09-10 00:15;2,5
2016-09-10 00:30;2,75
2016-09-10 00:45;3
2016-09-10 01:00;0,25
2016-09-10 01:15;0
2016-09-10 01:30;0
2016-09-10 01:45;0
2016-09-10 02:00;0
2016-09-10 02:15;0
2016-09-10 02:30;0
2016-09-10 02:45;0
2016-09-10 03:00;0
2016-09-10 03:15;0
2016-09-10 03:30;0
2016-09-10 03:45;0,2
2016-09-10 04:00;0
2016-09-10 04:15;0
2016-09-10 04:30;0
2016-09-10 04:45;1,6
2016-09-10 05:00;2
2016-09-10 05:15;1,5
2016-09-10 05:30;1,4
2016-09-10 05:45;1,3
2016-09-10 06:00;2,25
2016-09-10 06:15;3,25
2016-09-10 06:30;2,7
2016-09-10 06:45;3,4
2016-09-10 07:00;2,6
2016-09-10 07:15;4,6
2016-09-10 07:30;2,8
2016-09-10 07:45;11,8
2016-09-10 08:00;9,85
2016-09-10 08:15;5,05
2016-09-10 08:30;3,4
2016-09-10 08:45;2,7
2016-09-10 09:00;5,1
2016-09-10 09:15;2,95
2016-09-10 09:30;5,35
2016-09-10 09:45;10,7
2016-09-10 10:00;13,95
2016-09-10 10:15;10,85
2016-09-10 10:30;12,3
2016-09-10 10:45;15,45
2016-09-10 11:00;13,2
2016-09-10 11:15;7,9
2016-09-10 11:30;7,85
2016-09-10 11:45;7,2
2016-09-10 12:00;7,5
2016-09-10 12:15;7,6
2016-09-10 12:30;2,1
2016-09-10 12:45;3,55
2016-09-10 13:00;6,05
2016-09-10 13:15;1
2016-09-10 13:30;5
2016-09-10 13:45;11,75
2016-09-10 14:00;18,05
2016-09-10 14:15;11,05
2016-09-10 14:30;21,9
2016-09-10 14:45;18,75
2016-09-10 15:00;15,7
2016-09-10 15:15;17
2016-09-10 15:30;11,6
2016-09-10 15:45;13,4
2016-09-10 16:00;13,65
2016-09-10 16:15;17,05
2016-09-10 16:30;11,6
2016-09-10 16:45;12,95
2016-09-10 17:00;11,25
2016-09-10 17:15;8,85
2016-09-10 17:30;6,8
2016-09-10 17:45;4,15
2016-09-10 18:00;3,9
2016-09-10 18:15;3,75
2016-09-10 18:30;2,75
2016-09-10 18:45;3,85
2016-09-10 19:00;2,15
2016-09-10 19:15;2,45
2016-09-10 19:30;7,05
2016-09-10 19:45;8,7
2016-09-10 20:00;8
2016-09-10 20:15;5,6
2016-09-10 20:30;5,35
2016-09-10 20:45;6
2016-09-10 21:00;6,05
2016-09-10 21:15;5,5
2016-09-10 21:30;5,65
2016-09-10 21:45;4,95
2016-09-10 22:00;1,15
2016-09-10 22:15;3,15
2016-09-10 22:30;5,9
2016-09-10 22:45;4,8
2016-09-10 23:00;7,9
2016-09-10 23:15;10,45
2016-09-10 23:30;8,65
2016-09-10 23:45;6,3
2016-09-11 00:00;4,8
2016-09-11 00:15;4
2016-09-11 00:30;2,6
2016-09-11 00:45;2
2016-09-11 01:00;0,25
2016-09-11 01:15;0,45
2016-09-11 01:30;0,6
2016-09-11 01:45;0,15
2016-09-11 02:00;0,6
2016-09-11 02:15;0,95
2016-09-11 02:30;1,3
2016-09-11 02:45;1,55
2016-09-11 03:00;1,2
2016-09-11 03:15;1,6
2016-09-11 03:30;2
2016-09-11 03:45;1,3
2016-09-11 04:00;1,75
2016-09-11 04:15;1,25
2016-09-11 04:30;1,35
2016-09-11 04:45;1,05
2016-09-11 05:00;1,05
2016-09-11 05:15;0,9
2016-09-11 05:30;1,5
2016-09-11 05:45;1,35
2016-09-11 06:00;1,6
2016-09-11 06:15;2,75
2016-09-11 06:30;4,3
2016-09-11 06:45;3,15
2016-09-11 07:00;3,3
2016-09-11 07:15;4,75
2016-09-11 07:30;4,35
2016-09-11 07:45;4,4
2016-09-11 08:00;3,5
2016-09-11 08:15;3,45
2016-09-11 08:30;2,55
2016-09-11 08:45;2
2016-09-11 09:00;2,15
2016-09-11 09:15;2,25
2016-09-11 09:30;5,6
2016-09-11 09:45;4,15
2016-09-11 10:00;4,75
2016-09-11 10:15;8,35
2016-09-11 10:30;8,95
2016-09-11 10:45;7,4
2016-09-11 11:00;8,2
2016-09-11 11:15;9,8
2016-09-11 11:30;7,95
2016-09-11 11:45;9,3
2016-09-11 12:00;11,8
2016-09-11 12:15;11,2
2016-09-11 12:30;8,35
2016-09-11 12:45;11,65
2016-09-11 13:00;16,8
2016-09-11 13:15;18,45
2016-09-11 13:30;15
2016-09-11 13:45;16,1
2016-09-11 14:00;14,75
2016-09-11 14:15;14,9
2016-09-11 14:30;15,6
2016-09-11 14:45;14,65
2016-09-11 15:00;14,05
2016-09-11 15:15;10,4
2016-09-11 15:30;11,5
2016-09-11 15:45;11,35
2016-09-11 16:00;11,35
2016-09-11 16:15;11,7
2016-09-11 16:30;10,9
2016-09-11 16:45;12,5
2016-09-11 17:00;14,45
2016-09-11 17:15;13,45
2016-09-11 17:30;14,85
2016-09-11 17:45;16
2016-09-11 18:00;16,15
2016-09-11 18:15;16,35
2016-09-11 18:30;12,25
2016-09-11 18:45;11,9
2016-09-11 19:00;11,55
2016-09-11 19:15;11,55
2016-09-11 19:30;10,3
2016-09-11 19:45;7,15
2016-09-11 20:00;6,45
2016-09-11 20:15;6,75
2016-09-11 20:30;5,95
2016-09-11 20:45;5,65
2016-09-11 21:00;5,8
2016-09-11 21:15;6,15
2016-09-11 21:30;4,55
2016-09-11 21:45;3,85
2016-09-11 22:00;3,7
2016-09-11 22:15;4,15
2016-09-11 22:30;4,7
2016-09-11 22:45;5
2016-09-11 23:00;4,9
2016-09-11 23:15;5,65
2016-09-11 23:30;8,6
2016-09-11 23:45;8,1

